User: anonymous   Login
Location: Unspecified
(0.0000°N, 0.0000°E)
Time: 14:47:11
(UTC+00:00)
Language:

SR - Orbit

View from above orbital plane
View from above orbital plane
View from above satellite
View from above satellite

Ground track
Ground track

The orbit data is extracted from the following two-line orbital elements,

1    46U 60007B   21212.94621755  .00000089  00000-0  40554-4 0  9999
2    46  66.6910  19.9379 0211197 187.9714 171.8024 14.49420742198442
Epoch (UTC): 31 July 2021 22:42:33
Eccentricity: 0.0211197
inclination: 66.6910°
perigee height: 577 km
apogee height: 877 km
right ascension of ascending node: 19.9379°
argument of perigee: 187.9714°
revolutions per day: 14.49420742
mean anomaly at epoch: 171.8024°
orbit number at epoch: 19844

The dashed part of the orbit path shows where the satellite is in the earth's shadow,  

DLR